BEIDOU-3 M1 (C19)

Last updated on Wed Aug 26 2026 00:04:16 GMT+0000 (Coordinated Universal Time)

1 43001U 17069A 26236.86336668 -.00000004 00000+0 00000+0 0 9999 2 43001 56.7544 60.8247 0007613 325.8977 34.1152 1.86231406 59883
UTC large
Height (km)
Speed (km/s)
/
Latitude / Longitude
Inclination (degrees)
Orbital Period (minutes)
Azimuth
Elevation
Range (km)
Doppler Factor

Next 0 passes for location: London (51.5072 / 0.1276)

No passes found over London.
BEIDOU-3 M1 (C19)